Regional Weather Roundup
Issued by NWS

Home | Current Version | Previous Version | Text Only | Print | Product List | Glossary On
Versions: 1 2 3 4 5 6 7 8 9 10 11 12 13 14 15 16 17 18 19 20 21 22 23 24 25 26 27 28 29 30 31 32 33 34 35 36 37 38 39 40 41 42 43 44 45 46 47 48 49 50
000
ASUS43 KMKX 291521
RWRWI

WISCONSIN REGIONAL WEATHER ROUNDUP
NATIONAL WEATHER SERVICE MILWAUKEE/SULLIVAN WI
1000 AM CDT FRI APR 29 2016

NOTE: "FAIR" INDICATES FEW OR NO CLOUDS BELOW 12,000 FEET WITH NO
SIGNIFICANT WEATHER AND/OR OBSTRUCTIONS TO VISIBILITY.

WIZ001-002-006>008-014>016-023>028-291600-
NORTHWEST WISCONSIN

CITY           SKY/WX    TMP DP  RH WIND       PRES   REMARKS
SUPERIOR ARPT  SUNNY     44  29  55 NE6       30.21S
ASHLAND        SUNNY     45  32  60 N7        30.21R
HAYWARD        SUNNY     46  27  47 E10       30.17F
SIREN          SUNNY     46  28  49 NE3       30.19S
CUMBERLAND     SUNNY     43  28  56 N5        30.17S
RICE LAKE      SUNNY     45  32  60 NW5       30.18S
CHETEK         SUNNY     45  32  61 CALM      30.17S
LADYSMITH      SUNNY     49  33  54 N5        30.17S
EAU CLAIRE     PTSUNNY   47  37  68 CALM      30.16F
MENOMONIE      MOSUNNY   45  45 100 NW7       30.17F
NEW RICHMOND   MOSUNNY   42  37  84 CALM      30.19S
OSCEOLA        SUNNY     44  34  69 CALM      30.22S
$$

WIZ003>005-009-010-017-018-291600-
NORTH CENTRAL WISCONSIN

CITY           SKY/WX    TMP DP  RH WIND       PRES   REMARKS
MANITOWISH WTR SUNNY     46  33  61 CALM      30.14F
ARBOR VITAE    PTSUNNY   45  35  67 NE3       30.14F
WOODRUFF       PTSUNNY   45  35  67 NE3       30.14F
RHINELANDER    CLOUDY    46  35  65 NE6       30.15S
EAGLE RIVER    SUNNY     45  32  60 NE7       30.14S
LAND O LAKES   CLOUDY    45  33  64 W3        30.16R
PHILLIPS       MOSUNNY   46  34  63 NE6       30.15S
TOMAHAWK       CLOUDY    44  34  68 NE5       30.15S
MEDFORD        CLOUDY    42  39  89 N7        30.14S
MERRILL        CLOUDY    44  38  79 NE6       30.15S
$$

WIZ029-030-035-036-043>047-291600-
CENTRAL WISCONSIN

CITY           SKY/WX    TMP DP  RH WIND       PRES   REMARKS
WAUSAU         CLOUDY    47  36  65 N7        30.13R
MOSINEE        CLOUDY    43  37  81 N7        30.15R
MARSHFIELD     CLOUDY    46  37  71 NE8       30.15R
STEVENS POINT  CLOUDY    43  33  67 NE7       30.15R
WAUPACA        MOSUNNY   50  33  53 N9        30.14R
WAUTOMA        NOT AVBL
WISC RAPIDS    CLOUDY    46  34  62 NE7       30.16R
CAMP DOUGLAS   PTSUNNY   45  45 100 N7        30.13F
$$

WIZ011>013-019>022-031-037>040-048>050-291600-
NORTHEAST WISCONSIN

CITY           SKY/WX    TMP DP  RH WIND       PRES   REMARKS
ANTIGO         CLOUDY    44  36  72 NE7       30.13F
SHAWANO        MOSUNNY   49  34  55 NE7       30.14S
OCONTO         CLOUDY    45  34  66 E6        30.14S
STURGEON BAY   CLOUDY    46  28  49 E9        30.15F
GREEN BAY      MOSUNNY   47  35  63 NE13      30.12F
MANITOWOC      CLOUDY    46  36  68 NE8G25    30.12F
APPLETON       PTSUNNY   45  32  61 NE9       30.10F
CLINTONVILLE   CLOUDY    46  32  57 N14       30.12F
OSHKOSH        CLOUDY    46  34  62 NE10      30.11S
$$

WIZ032>034-041-042-053>061-291600-
SOUTHWEST WISCONSIN

CITY           SKY/WX    TMP DP  RH WIND       PRES   REMARKS
LA CROSSE      CLOUDY    47  37  68 N9        30.13F
SPARTA         CLOUDY    44  39  80 N7        30.15F
VIROQUA        CLOUDY    43  38  83 N15       30.09F
BOSCOBEL       MOSUNNY   47  36  65 N13       30.11F
PRAIRIE DU CHI CLOUDY    44  35  72 N9        30.11F
PLATTEVILLE    CLOUDY    45  40  83 N14       30.09S
$$

WIZ056-057-062-063-064-067-068-291600-
SOUTH CENTRAL WISCONSIN

CITY           SKY/WX    TMP DP  RH WIND       PRES   REMARKS
REEDSBURG      CLOUDY    42  37  81 N5        30.12S
BARABOO/DELLS  CLOUDY    44  37  77 E5        30.12S
LONE ROCK      CLOUDY    47  37  68 N12       30.12F
MINERAL POINT  MOSUNNY   46  39  76 N17       30.09S
MADISON        CLOUDY    44  37  76 N12G22    30.10F
MIDDLETON      CLOUDY    46  39  78 N13       30.10F
WATERTOWN      CLOUDY    43  37  80 N8        30.10R
MONROE         CLOUDY    43  36  75 N13G18    30.09R
JANESVILLE     PTSUNNY   46  37  71 NE16G22   30.08S
$$

WIZ051-052-058>065-066-070>072-291600-
SOUTHEAST WISCONSIN

CITY           SKY/WX    TMP DP  RH WIND       PRES   REMARKS
MILWAUKEE      CLOUDY    41  37  86 N13       30.10R
WAUKESHA       CLOUDY    39  36  87 N7        30.10S WCI  34
MILWAUKEE/TIMM CLOUDY    39  36  87 NE7       30.11S WCI  34
RACINE         CLOUDY    41  37  86 NE13      30.11R
BURLINGTON     CLOUDY    42  37  81 NE7       30.11R
KENOSHA        CLOUDY    43  38  82 NE15      30.09R
FOND DU LAC    CLOUDY    45  36  70 N6        30.12R
SHEBOYGAN      PTSUNNY   45  37  73 NE10      30.10F
WEST BEND      CLOUDY    41  36  81 NE10      30.10R
JUNEAU         CLOUDY    43  36  77 N13G18    30.11S
$$

LSZ147-162-291600-
LAKE SUPERIOR

STATION/POSITION TIME  TEMP    WIND        PRES    WAVE
                       AIR SEA DIR/SP/G            HT/PER
                 (UTC) (F)     (DEG/KT/KT) (MB)    (FT/S)
W MID LAKE BUOY  1450   38 36   30/  8/  8 1023.5R   1
DEVILS ISLAND    1500   38      50/  6/  7 1024.1R
SAXON HARBOR     1400   37     330/  2/  4 1022.0R
$$

LMZ867-665-643>646-291600-
LAKE MICHIGAN

STATION/POSITION TIME  TEMP    WIND        PRES    WAVE
                       AIR SEA DIR/SP/G            HT/PER
                 (UTC) (F)     (DEG/KT/KT) (MB)    (FT/S)
CHAMBERS ISLAND  1440   40      10/  9/ 11 1021.3S
N MID LAKE BUOY  1450   39 39  350/ 10/ 12 1021.0R   0
NORTHPORT PIER   1400   39     320/  7/  7 1021.3R
ALGOMA LAKESHORE 1400           50/  9/ 11   N/A
KEWAUNEE LAKESHO 1400   42      30/  8/  9 1019.6R
SHEBOYGAN LAKESH 1500   40      20/ 11/ 11 1020.3F
PORT WASHINGTON  1400   42      40/  8/ 11 1020.3F
S MID LAKE BUOY  1450   40 40   30/ 10/ 12 1018.7F   1/ 3
KENOSHA   LAKESH 1500   41      20/ 16/ 19 1019.0R
$$

TC  - TEMPERATURE IN CELSIUS
VSB - VISIBILITY IN STATUTE MILES
WCI - WIND CHILL INDEX
HX  - HEAT INDEX





USA.gov is the U.S. government's official web portal to all federal, state and local government web resources and services.